Year,Month,Day,Hour,Minute,Value (Times are PST for temperature in C)
2018,08,07,00,00,19.30
2018,08,07,00,01,19.30
2018,08,07,00,02,19.30
2018,08,07,00,03,19.30
2018,08,07,00,04,19.30
2018,08,07,00,05,19.30
2018,08,07,00,06,19.20
2018,08,07,00,07,19.30
2018,08,07,00,08,19.30
2018,08,07,00,09,19.30
2018,08,07,00,10,19.30
2018,08,07,00,11,19.30
2018,08,07,00,12,19.30
2018,08,07,00,13,19.30
2018,08,07,00,14,19.20
2018,08,07,00,15,19.20
2018,08,07,00,16,19.20
2018,08,07,00,17,19.20
2018,08,07,00,18,19.20
2018,08,07,00,19,19.20
2018,08,07,00,20,19.20
2018,08,07,00,21,19.20
2018,08,07,00,22,19.20
2018,08,07,00,23,19.20
2018,08,07,00,24,19.10
2018,08,07,00,25,19.10
2018,08,07,00,26,19.10
2018,08,07,00,27,19.10
2018,08,07,00,28,19.10
2018,08,07,00,29,19.10
2018,08,07,00,30,19.00
2018,08,07,00,31,19.00
2018,08,07,00,32,18.90
2018,08,07,00,33,18.90
2018,08,07,00,34,18.90
2018,08,07,00,35,18.80
2018,08,07,00,36,18.80
2018,08,07,00,37,18.80
2018,08,07,00,38,18.80
2018,08,07,00,39,18.70
2018,08,07,00,40,18.70
2018,08,07,00,41,18.70
2018,08,07,00,42,18.60
2018,08,07,00,43,18.60
2018,08,07,00,44,18.60
2018,08,07,00,45,18.60
2018,08,07,00,46,18.50
2018,08,07,00,47,18.50
2018,08,07,00,48,18.50
2018,08,07,00,49,18.40
2018,08,07,00,50,18.40
2018,08,07,00,51,18.40
2018,08,07,00,52,18.40
2018,08,07,00,53,18.40
2018,08,07,00,54,18.40
2018,08,07,00,55,18.40
2018,08,07,00,56,18.30
2018,08,07,00,57,18.30
2018,08,07,00,58,18.30
2018,08,07,00,59,18.30
2018,08,07,01,00,18.30
2018,08,07,01,01,18.30
2018,08,07,01,02,18.30
2018,08,07,01,03,18.30
2018,08,07,01,04,18.30
2018,08,07,01,05,18.30
2018,08,07,01,06,18.30
2018,08,07,01,07,18.30
2018,08,07,01,08,18.30
2018,08,07,01,09,18.30
2018,08,07,01,10,18.30
2018,08,07,01,11,18.40
2018,08,07,01,12,18.40
2018,08,07,01,13,18.40
2018,08,07,01,14,18.50
2018,08,07,01,15,18.50
2018,08,07,01,16,18.60
2018,08,07,01,17,18.60
2018,08,07,01,18,18.70
2018,08,07,01,19,18.70
2018,08,07,01,20,18.70
2018,08,07,01,21,18.70
2018,08,07,01,22,18.70
2018,08,07,01,23,18.80
2018,08,07,01,24,18.80
2018,08,07,01,25,18.80
2018,08,07,01,26,18.80
2018,08,07,01,27,18.80
2018,08,07,01,28,18.80
2018,08,07,01,29,18.80
2018,08,07,01,30,18.70
2018,08,07,01,31,18.70
2018,08,07,01,32,18.70
2018,08,07,01,33,18.70
2018,08,07,01,34,18.60
2018,08,07,01,35,18.60
2018,08,07,01,36,18.60
2018,08,07,01,37,18.60
2018,08,07,01,38,18.50
2018,08,07,01,39,18.50
2018,08,07,01,40,18.40
2018,08,07,01,41,18.40
2018,08,07,01,42,18.40
2018,08,07,01,43,18.30
2018,08,07,01,44,18.30
2018,08,07,01,45,18.30
2018,08,07,01,46,18.20
2018,08,07,01,47,18.20
2018,08,07,01,48,18.20
2018,08,07,01,49,18.20
2018,08,07,01,50,18.20
2018,08,07,01,51,18.20
2018,08,07,01,52,18.10
2018,08,07,01,53,18.10
2018,08,07,01,54,18.10
2018,08,07,01,55,18.10
2018,08,07,01,56,18.10
2018,08,07,01,57,18.10
2018,08,07,01,58,18.10
2018,08,07,01,59,18.00
2018,08,07,02,00,18.00
2018,08,07,02,01,18.00
2018,08,07,02,02,18.00
2018,08,07,02,03,17.90
2018,08,07,02,04,17.90
2018,08,07,02,05,17.90
2018,08,07,02,06,17.90
2018,08,07,02,07,17.90
2018,08,07,02,08,17.90
2018,08,07,02,09,17.90
2018,08,07,02,10,17.90
2018,08,07,02,11,17.90
2018,08,07,02,12,17.90
2018,08,07,02,13,17.90
2018,08,07,02,14,17.90
2018,08,07,02,15,17.90
2018,08,07,02,16,17.80
2018,08,07,02,17,17.80
2018,08,07,02,18,17.80
2018,08,07,02,19,17.80
2018,08,07,02,20,17.70
2018,08,07,02,21,17.70
2018,08,07,02,22,17.70
2018,08,07,02,23,17.60
2018,08,07,02,24,17.60
2018,08,07,02,25,17.60
2018,08,07,02,26,17.60
2018,08,07,02,27,17.60
2018,08,07,02,28,17.60
2018,08,07,02,29,17.60
2018,08,07,02,30,17.50
2018,08,07,02,31,17.60
2018,08,07,02,32,17.60
2018,08,07,02,33,17.60
2018,08,07,02,34,17.50
2018,08,07,02,35,17.60
2018,08,07,02,36,17.60
2018,08,07,02,37,17.50
2018,08,07,02,38,17.50
2018,08,07,02,39,17.50
2018,08,07,02,40,17.50
2018,08,07,02,41,17.50
2018,08,07,02,42,17.50
2018,08,07,02,43,17.50
2018,08,07,02,44,17.50
2018,08,07,02,45,17.50
2018,08,07,02,46,17.50
2018,08,07,02,47,17.50
2018,08,07,02,48,17.50
2018,08,07,02,49,17.50
2018,08,07,02,50,17.50
2018,08,07,02,51,17.40
2018,08,07,02,52,17.40
2018,08,07,02,53,17.40
2018,08,07,02,54,17.40
2018,08,07,02,55,17.40
2018,08,07,02,56,17.40
2018,08,07,02,57,17.40
2018,08,07,02,58,17.40
2018,08,07,02,59,17.40
2018,08,07,03,00,17.40
2018,08,07,03,01,17.40
2018,08,07,03,02,17.40
2018,08,07,03,03,17.40
2018,08,07,03,04,17.40
2018,08,07,03,05,17.40
2018,08,07,03,06,17.40
2018,08,07,03,07,17.40
2018,08,07,03,08,17.40
2018,08,07,03,09,17.50
2018,08,07,03,10,17.40
2018,08,07,03,11,17.40
2018,08,07,03,12,17.40
2018,08,07,03,13,17.40
2018,08,07,03,14,17.40
2018,08,07,03,15,17.40
2018,08,07,03,16,17.40
2018,08,07,03,17,17.40
2018,08,07,03,18,17.40
2018,08,07,03,19,17.40
2018,08,07,03,20,17.40
2018,08,07,03,21,17.40
2018,08,07,03,22,17.40
2018,08,07,03,23,17.40
2018,08,07,03,24,17.40
2018,08,07,03,25,17.40
2018,08,07,03,26,17.40
2018,08,07,03,27,17.30
2018,08,07,03,28,17.30
2018,08,07,03,29,17.30
2018,08,07,03,30,17.30
2018,08,07,03,31,17.30
2018,08,07,03,32,17.30
2018,08,07,03,33,17.30
2018,08,07,03,34,17.30
2018,08,07,03,35,17.30
2018,08,07,03,36,17.30
2018,08,07,03,37,17.30
2018,08,07,03,38,17.30
2018,08,07,03,39,17.30
2018,08,07,03,40,17.30
2018,08,07,03,41,17.30
2018,08,07,03,42,17.20
2018,08,07,03,43,17.20
2018,08,07,03,44,17.20
2018,08,07,03,45,17.20
2018,08,07,03,46,17.20
2018,08,07,03,47,17.20
2018,08,07,03,48,17.20
2018,08,07,03,49,17.20
2018,08,07,03,50,17.20
2018,08,07,03,51,17.10
2018,08,07,03,52,17.10
2018,08,07,03,53,17.10
2018,08,07,03,54,17.10
2018,08,07,03,55,17.10
2018,08,07,03,56,17.10
2018,08,07,03,57,17.10
2018,08,07,03,58,17.10
2018,08,07,03,59,17.10
2018,08,07,04,00,17.10
2018,08,07,04,01,17.10
2018,08,07,04,02,17.00
2018,08,07,04,03,17.00
2018,08,07,04,04,17.00
2018,08,07,04,05,17.00
2018,08,07,04,06,16.90
2018,08,07,04,07,16.90
2018,08,07,04,08,16.90
2018,08,07,04,09,16.90
2018,08,07,04,10,16.90
2018,08,07,04,11,16.90
2018,08,07,04,12,16.90
2018,08,07,04,13,16.90
2018,08,07,04,14,16.90
2018,08,07,04,15,16.80
2018,08,07,04,16,16.80
2018,08,07,04,17,16.90
2018,08,07,04,18,16.80
2018,08,07,04,19,16.80
2018,08,07,04,20,16.80
2018,08,07,04,21,16.80
2018,08,07,04,22,16.80
2018,08,07,04,23,16.80
2018,08,07,04,24,16.80
2018,08,07,04,25,16.80
2018,08,07,04,26,16.80
2018,08,07,04,27,16.80
2018,08,07,04,28,16.80
2018,08,07,04,29,16.80
2018,08,07,04,30,16.80
2018,08,07,04,31,16.80
2018,08,07,04,32,16.80
2018,08,07,04,33,16.70
2018,08,07,04,34,16.70
2018,08,07,04,35,16.70
2018,08,07,04,36,16.70
2018,08,07,04,37,16.70
2018,08,07,04,38,16.70
2018,08,07,04,39,16.70
2018,08,07,04,40,16.70
2018,08,07,04,41,16.70
2018,08,07,04,42,16.70
2018,08,07,04,43,16.70
2018,08,07,04,44,16.60
2018,08,07,04,45,16.60
2018,08,07,04,46,16.60
2018,08,07,04,47,16.60
2018,08,07,04,48,16.60
2018,08,07,04,49,16.60
2018,08,07,04,50,16.60
2018,08,07,04,51,16.50
2018,08,07,04,52,16.50
2018,08,07,04,53,16.50
2018,08,07,04,54,16.50
2018,08,07,04,55,16.50
2018,08,07,04,56,16.50
2018,08,07,04,57,16.40
2018,08,07,04,58,16.40
2018,08,07,04,59,16.40
2018,08,07,05,00,16.40
2018,08,07,05,01,16.40
2018,08,07,05,02,16.40
2018,08,07,05,03,16.30
2018,08,07,05,04,16.30
2018,08,07,05,05,16.30
2018,08,07,05,06,16.30
2018,08,07,05,07,16.30
2018,08,07,05,08,16.30
2018,08,07,05,09,16.30
2018,08,07,05,10,16.30
2018,08,07,05,11,16.30
2018,08,07,05,12,16.30
2018,08,07,05,13,16.30
2018,08,07,05,14,16.30
2018,08,07,05,15,16.30
2018,08,07,05,16,16.30
2018,08,07,05,17,16.30
2018,08,07,05,18,16.30
2018,08,07,05,19,16.30
2018,08,07,05,20,16.30
2018,08,07,05,21,16.30
2018,08,07,05,22,16.30
2018,08,07,05,23,16.20
2018,08,07,05,24,16.20
2018,08,07,05,25,16.20
2018,08,07,05,26,16.20
2018,08,07,05,27,16.20
2018,08,07,05,28,16.20
2018,08,07,05,29,16.20
2018,08,07,05,30,16.20
2018,08,07,05,31,16.10
2018,08,07,05,32,16.10
2018,08,07,05,33,16.10
2018,08,07,05,34,16.10
2018,08,07,05,35,16.10
2018,08,07,05,36,16.10
2018,08,07,05,37,16.10
2018,08,07,05,38,16.00
2018,08,07,05,39,16.00
2018,08,07,05,40,16.00
2018,08,07,05,41,16.00
2018,08,07,05,42,16.00
2018,08,07,05,43,15.90
2018,08,07,05,44,15.90
2018,08,07,05,45,15.90
2018,08,07,05,46,15.90
2018,08,07,05,47,15.90
2018,08,07,05,48,15.90
2018,08,07,05,49,15.90
2018,08,07,05,50,15.90
2018,08,07,05,51,15.90
2018,08,07,05,52,15.90
2018,08,07,05,53,15.90
2018,08,07,05,54,15.80
2018,08,07,05,55,15.80
2018,08,07,05,56,15.80
2018,08,07,05,57,15.80
2018,08,07,05,58,15.80
2018,08,07,05,59,15.80
2018,08,07,06,00,15.80
2018,08,07,06,01,15.80
2018,08,07,06,02,15.70
2018,08,07,06,03,15.70
2018,08,07,06,04,15.70
2018,08,07,06,05,15.70
2018,08,07,06,06,15.70
2018,08,07,06,07,15.70
2018,08,07,06,08,15.70
2018,08,07,06,09,15.70
2018,08,07,06,10,15.70
2018,08,07,06,11,15.70
2018,08,07,06,12,15.70
2018,08,07,06,13,15.70
2018,08,07,06,14,15.70
2018,08,07,06,15,15.70
2018,08,07,06,16,15.70
2018,08,07,06,17,15.70
2018,08,07,06,18,15.70
2018,08,07,06,19,15.70
2018,08,07,06,20,15.70
2018,08,07,06,21,15.70
2018,08,07,06,22,15.70
2018,08,07,06,23,15.70
2018,08,07,06,24,15.70
2018,08,07,06,25,15.70
2018,08,07,06,26,15.70
2018,08,07,06,27,15.70
2018,08,07,06,28,15.70
2018,08,07,06,29,15.70
2018,08,07,06,30,15.70
2018,08,07,06,31,15.70
2018,08,07,06,32,15.70
2018,08,07,06,33,15.80
2018,08,07,06,34,15.80
2018,08,07,06,35,15.80
2018,08,07,06,36,15.80
2018,08,07,06,37,15.80
2018,08,07,06,38,15.80
2018,08,07,06,39,15.90
2018,08,07,06,40,15.90
2018,08,07,06,41,15.90
2018,08,07,06,42,16.00
2018,08,07,06,43,16.00
2018,08,07,06,44,16.10
2018,08,07,06,45,16.20
2018,08,07,06,46,16.20
2018,08,07,06,47,16.30
2018,08,07,06,48,16.40
2018,08,07,06,49,16.40
2018,08,07,06,50,16.50
2018,08,07,06,51,16.50
2018,08,07,06,52,16.60
2018,08,07,06,53,16.60
2018,08,07,06,54,16.60
2018,08,07,06,55,16.60
2018,08,07,06,56,16.60
2018,08,07,06,57,16.60
2018,08,07,06,58,16.60
2018,08,07,06,59,16.60
2018,08,07,07,00,16.60
2018,08,07,07,01,16.60
2018,08,07,07,02,16.60
2018,08,07,07,03,16.70
2018,08,07,07,04,16.70
2018,08,07,07,05,16.70
2018,08,07,07,06,16.70
2018,08,07,07,07,16.70
2018,08,07,07,08,16.70
2018,08,07,07,09,16.70
2018,08,07,07,10,16.70
2018,08,07,07,11,16.70
2018,08,07,07,12,16.70
2018,08,07,07,13,16.80
2018,08,07,07,14,16.80
2018,08,07,07,15,16.90
2018,08,07,07,16,17.00
2018,08,07,07,17,17.10
2018,08,07,07,18,17.20
2018,08,07,07,19,17.30
2018,08,07,07,20,17.40
2018,08,07,07,21,17.50
2018,08,07,07,22,17.60
2018,08,07,07,23,17.70
2018,08,07,07,24,17.80
2018,08,07,07,25,17.90
2018,08,07,07,26,17.90
2018,08,07,07,27,18.00
2018,08,07,07,28,18.10
2018,08,07,07,29,18.10
2018,08,07,07,30,18.10
2018,08,07,07,31,18.20
2018,08,07,07,32,18.20
2018,08,07,07,33,18.20
2018,08,07,07,34,18.20
2018,08,07,07,35,18.10
2018,08,07,07,36,18.10
2018,08,07,07,37,18.20
2018,08,07,07,38,18.20
2018,08,07,07,39,18.20
2018,08,07,07,40,18.20
2018,08,07,07,41,18.20
2018,08,07,07,42,18.30
2018,08,07,07,43,18.40
2018,08,07,07,44,18.50
2018,08,07,07,45,18.60
2018,08,07,07,46,18.70
2018,08,07,07,47,18.90
2018,08,07,07,48,19.00
2018,08,07,07,49,19.10
2018,08,07,07,50,19.30
2018,08,07,07,51,19.40
2018,08,07,07,52,19.60
2018,08,07,07,53,19.70
2018,08,07,07,54,19.80
2018,08,07,07,55,20.00
2018,08,07,07,56,20.20
2018,08,07,07,57,20.30
2018,08,07,07,58,20.50
2018,08,07,07,59,20.60
2018,08,07,08,00,20.80
2018,08,07,08,01,20.90
2018,08,07,08,02,21.00
2018,08,07,08,03,21.10
2018,08,07,08,04,21.20
2018,08,07,08,05,21.30
2018,08,07,08,06,21.30
2018,08,07,08,07,21.40
2018,08,07,08,08,21.50
2018,08,07,08,09,21.60
2018,08,07,08,10,21.70
2018,08,07,08,11,21.80
2018,08,07,08,12,21.80
2018,08,07,08,13,22.00
2018,08,07,08,14,22.00
2018,08,07,08,15,22.10
2018,08,07,08,16,22.20
2018,08,07,08,17,22.30
2018,08,07,08,18,22.40
2018,08,07,08,19,22.40
2018,08,07,08,20,22.40
2018,08,07,08,21,22.40
2018,08,07,08,22,22.40
2018,08,07,08,23,22.50
2018,08,07,08,24,22.80
2018,08,07,08,25,22.70
2018,08,07,08,26,22.60
2018,08,07,08,27,22.40
2018,08,07,08,28,22.30
2018,08,07,08,29,22.20
2018,08,07,08,30,22.20
2018,08,07,08,31,22.10
2018,08,07,08,32,22.10
2018,08,07,08,33,22.10
2018,08,07,08,34,22.10
2018,08,07,08,35,22.00
2018,08,07,08,36,22.00
2018,08,07,08,37,22.00
2018,08,07,08,38,22.00
2018,08,07,08,39,22.00
2018,08,07,08,40,22.10
2018,08,07,08,41,22.10
2018,08,07,08,42,22.10
2018,08,07,08,43,22.10
2018,08,07,08,44,22.10
2018,08,07,08,45,22.10
2018,08,07,08,46,22.10
2018,08,07,08,47,22.10
2018,08,07,08,48,22.20
2018,08,07,08,49,22.20
2018,08,07,08,50,22.20
2018,08,07,08,51,22.20
2018,08,07,08,52,22.20
2018,08,07,08,53,22.10
2018,08,07,08,54,22.10
2018,08,07,08,55,22.00
2018,08,07,08,56,22.00
2018,08,07,08,57,22.00
2018,08,07,08,58,22.10
2018,08,07,08,59,22.10
2018,08,07,09,00,22.10
2018,08,07,09,01,22.20
2018,08,07,09,02,22.20
2018,08,07,09,03,22.30
2018,08,07,09,04,22.40
2018,08,07,09,05,22.50
2018,08,07,09,06,22.50
2018,08,07,09,07,22.60
2018,08,07,09,08,22.70
2018,08,07,09,09,22.80
2018,08,07,09,10,22.90
2018,08,07,09,11,23.00
2018,08,07,09,12,23.10
2018,08,07,09,13,23.10
2018,08,07,09,14,23.20
2018,08,07,09,15,23.20
2018,08,07,09,16,23.20
2018,08,07,09,17,23.20
2018,08,07,09,18,23.10
2018,08,07,09,19,23.00
2018,08,07,09,20,23.00
2018,08,07,09,21,22.90
2018,08,07,09,22,22.90
2018,08,07,09,23,22.90
2018,08,07,09,24,22.90
2018,08,07,09,25,22.90
2018,08,07,09,26,22.90
2018,08,07,09,27,22.90
2018,08,07,09,28,22.90
2018,08,07,09,29,22.80
2018,08,07,09,30,22.80
2018,08,07,09,31,22.80
2018,08,07,09,32,22.90
2018,08,07,09,33,22.90
2018,08,07,09,34,23.00
2018,08,07,09,35,23.10
2018,08,07,09,36,23.10
2018,08,07,09,37,23.00
2018,08,07,09,38,23.00
2018,08,07,09,39,22.90
2018,08,07,09,40,22.80
2018,08,07,09,41,22.70
2018,08,07,09,42,22.60
2018,08,07,09,43,22.60
2018,08,07,09,44,22.50
2018,08,07,09,45,22.60
2018,08,07,09,46,22.60
2018,08,07,09,47,22.60
2018,08,07,09,48,22.50
2018,08,07,09,49,22.50
2018,08,07,09,50,22.50
2018,08,07,09,51,22.60
2018,08,07,09,52,22.70
2018,08,07,09,53,22.70
2018,08,07,09,54,22.90
2018,08,07,09,55,23.00
2018,08,07,09,56,23.10
2018,08,07,09,57,23.20
2018,08,07,09,58,23.30
2018,08,07,09,59,23.50
2018,08,07,10,00,23.50
2018,08,07,10,01,23.60
2018,08,07,10,02,23.70
2018,08,07,10,03,23.70
2018,08,07,10,04,23.80
2018,08,07,10,05,23.80
2018,08,07,10,06,23.90
2018,08,07,10,07,24.00
2018,08,07,10,08,24.00
2018,08,07,10,09,24.10
2018,08,07,10,10,24.20
2018,08,07,10,11,24.40
2018,08,07,10,12,24.50
2018,08,07,10,13,24.50
2018,08,07,10,14,24.70
2018,08,07,10,15,24.70
2018,08,07,10,16,24.70
2018,08,07,10,17,24.70
2018,08,07,10,18,24.70
2018,08,07,10,19,24.60
2018,08,07,10,20,24.60
2018,08,07,10,21,24.60
2018,08,07,10,22,24.70
2018,08,07,10,23,24.70
2018,08,07,10,24,24.60
2018,08,07,10,25,24.60
2018,08,07,10,26,24.60
2018,08,07,10,27,24.70
2018,08,07,10,28,24.70
2018,08,07,10,29,24.70
2018,08,07,10,30,24.70
2018,08,07,10,31,24.70
2018,08,07,10,32,24.70
2018,08,07,10,33,24.70
2018,08,07,10,34,24.80
2018,08,07,10,35,24.80
2018,08,07,10,36,24.80
2018,08,07,10,37,24.80
2018,08,07,10,38,24.80
2018,08,07,10,39,24.80
2018,08,07,10,40,24.80
2018,08,07,10,41,24.80
2018,08,07,10,42,24.80
2018,08,07,10,43,24.90
2018,08,07,10,44,24.90
2018,08,07,10,45,25.00
2018,08,07,10,46,25.00
2018,08,07,10,47,25.10
2018,08,07,10,48,25.20
2018,08,07,10,49,25.20
2018,08,07,10,50,25.20
2018,08,07,10,51,25.20
2018,08,07,10,52,25.20
2018,08,07,10,53,25.20
2018,08,07,10,54,25.20
2018,08,07,10,55,25.20
2018,08,07,10,56,25.20
2018,08,07,10,57,25.20
2018,08,07,10,58,25.20
2018,08,07,10,59,25.20
2018,08,07,11,00,25.20
2018,08,07,11,01,25.20
2018,08,07,11,02,25.30
2018,08,07,11,03,25.40
2018,08,07,11,04,25.40
2018,08,07,11,05,25.40
2018,08,07,11,06,25.40
2018,08,07,11,07,25.40
2018,08,07,11,08,25.40
2018,08,07,11,09,25.50
2018,08,07,11,10,25.50
2018,08,07,11,11,25.50
2018,08,07,11,12,25.60
2018,08,07,11,13,25.50
2018,08,07,11,14,25.50
2018,08,07,11,15,25.60
2018,08,07,11,16,25.60
2018,08,07,11,17,25.50
2018,08,07,11,18,25.50
2018,08,07,11,19,25.50
2018,08,07,11,20,25.40
2018,08,07,11,21,25.40
2018,08,07,11,22,25.40
2018,08,07,11,23,25.30
2018,08,07,11,24,25.20
2018,08,07,11,25,25.00
2018,08,07,11,26,24.80
2018,08,07,11,27,24.80
2018,08,07,11,28,24.80
2018,08,07,11,29,24.90
2018,08,07,11,30,25.00
2018,08,07,11,31,25.00
2018,08,07,11,32,25.10
2018,08,07,11,33,25.10
2018,08,07,11,34,25.20
2018,08,07,11,35,25.30
2018,08,07,11,36,25.30
2018,08,07,11,37,25.30
2018,08,07,11,38,25.40
2018,08,07,11,39,25.50
2018,08,07,11,40,25.60
2018,08,07,11,41,25.80
2018,08,07,11,42,25.90
2018,08,07,11,43,26.10
2018,08,07,11,44,26.30
2018,08,07,11,45,26.50
2018,08,07,11,46,26.60
2018,08,07,11,47,26.70
2018,08,07,11,48,26.70
2018,08,07,11,49,26.80
2018,08,07,11,50,26.80
2018,08,07,11,51,26.90
2018,08,07,11,52,26.90
2018,08,07,11,53,26.90
2018,08,07,11,54,26.90
2018,08,07,11,55,26.90
2018,08,07,11,56,26.90
2018,08,07,11,57,27.00
2018,08,07,11,58,27.00
2018,08,07,11,59,26.90
2018,08,07,12,00,26.70
2018,08,07,12,01,26.50
2018,08,07,12,02,26.40
2018,08,07,12,03,26.30
2018,08,07,12,04,26.30
2018,08,07,12,05,26.40
2018,08,07,12,06,26.40
2018,08,07,12,07,26.40
2018,08,07,12,08,26.50
2018,08,07,12,09,26.50
2018,08,07,12,10,26.50
2018,08,07,12,11,26.50
2018,08,07,12,12,26.60
2018,08,07,12,13,26.60
2018,08,07,12,14,26.60
2018,08,07,12,15,26.70
2018,08,07,12,16,26.70
2018,08,07,12,17,26.80
2018,08,07,12,18,26.80
2018,08,07,12,19,26.80
2018,08,07,12,20,26.80
2018,08,07,12,21,26.80
2018,08,07,12,22,26.80
2018,08,07,12,23,26.80
2018,08,07,12,24,26.80
2018,08,07,12,25,26.80
2018,08,07,12,26,26.80
2018,08,07,12,27,26.90
2018,08,07,12,28,26.90
2018,08,07,12,29,26.90
2018,08,07,12,30,26.90
2018,08,07,12,31,26.90
2018,08,07,12,32,26.90
2018,08,07,12,33,26.90
2018,08,07,12,34,26.80
2018,08,07,12,35,26.80
2018,08,07,12,36,26.60
2018,08,07,12,37,26.40
2018,08,07,12,38,26.30
2018,08,07,12,39,26.20
2018,08,07,12,40,26.20
2018,08,07,12,41,26.30
2018,08,07,12,42,26.30
2018,08,07,12,43,26.40
2018,08,07,12,44,26.40
2018,08,07,12,45,26.50
2018,08,07,12,46,26.60
2018,08,07,12,47,26.70
2018,08,07,12,48,26.70
2018,08,07,12,49,26.60
2018,08,07,12,50,26.50
2018,08,07,12,51,26.40
2018,08,07,12,52,26.30
2018,08,07,12,53,26.30
2018,08,07,12,54,26.40
2018,08,07,12,55,26.50
2018,08,07,12,56,26.60
2018,08,07,12,57,26.70
2018,08,07,12,58,26.80
2018,08,07,12,59,26.80
2018,08,07,13,00,26.90
2018,08,07,13,01,26.90
2018,08,07,13,02,26.90
2018,08,07,13,03,27.00
2018,08,07,13,04,27.10
2018,08,07,13,05,27.20
2018,08,07,13,06,27.20
2018,08,07,13,07,27.30
2018,08,07,13,08,27.40
2018,08,07,13,09,27.50
2018,08,07,13,10,27.60
2018,08,07,13,11,27.60
2018,08,07,13,12,27.60
2018,08,07,13,13,27.60
2018,08,07,13,14,27.50
2018,08,07,13,15,27.50
2018,08,07,13,16,27.50
2018,08,07,13,17,27.50
2018,08,07,13,18,27.60
2018,08,07,13,19,27.60
2018,08,07,13,20,27.70
2018,08,07,13,21,27.70
2018,08,07,13,22,27.70
2018,08,07,13,23,27.70
2018,08,07,13,24,27.80
2018,08,07,13,25,27.80
2018,08,07,13,26,27.70
2018,08,07,13,27,27.80
2018,08,07,13,28,27.80
2018,08,07,13,29,27.80
2018,08,07,13,30,27.80
2018,08,07,13,31,27.80
2018,08,07,13,32,27.80
2018,08,07,13,33,27.90
2018,08,07,13,34,27.90
2018,08,07,13,35,27.80
2018,08,07,13,36,27.80
2018,08,07,13,37,27.70
2018,08,07,13,38,27.70
2018,08,07,13,39,27.70
2018,08,07,13,40,27.70
2018,08,07,13,41,27.80
2018,08,07,13,42,27.80
2018,08,07,13,43,27.90
2018,08,07,13,44,27.90
2018,08,07,13,45,27.90
2018,08,07,13,46,28.00
2018,08,07,13,47,28.00
2018,08,07,13,48,27.90
2018,08,07,13,49,28.00
2018,08,07,13,50,28.00
2018,08,07,13,51,28.00
2018,08,07,13,52,28.10
2018,08,07,13,53,28.10
2018,08,07,13,54,28.10
2018,08,07,13,55,28.10
2018,08,07,13,56,28.20
2018,08,07,13,57,28.20
2018,08,07,13,58,28.20
2018,08,07,13,59,28.30
2018,08,07,14,00,28.30
2018,08,07,14,01,28.30
2018,08,07,14,02,28.30
2018,08,07,14,03,28.40
2018,08,07,14,04,28.50
2018,08,07,14,05,28.60
2018,08,07,14,06,28.60
2018,08,07,14,07,28.70
2018,08,07,14,08,28.70
2018,08,07,14,09,28.70
2018,08,07,14,10,28.80
2018,08,07,14,11,28.80
2018,08,07,14,12,28.70
2018,08,07,14,13,28.70
2018,08,07,14,14,28.70
2018,08,07,14,15,28.80
2018,08,07,14,16,28.80
2018,08,07,14,17,28.80
2018,08,07,14,18,28.80
2018,08,07,14,19,28.70
2018,08,07,14,20,28.70
2018,08,07,14,21,28.70
2018,08,07,14,22,28.80
2018,08,07,14,23,28.80
2018,08,07,14,24,28.90
2018,08,07,14,25,29.00
2018,08,07,14,26,29.00
2018,08,07,14,27,29.10
2018,08,07,14,28,29.20
2018,08,07,14,29,29.20
2018,08,07,14,30,29.20
2018,08,07,14,31,29.30
2018,08,07,14,32,29.20
2018,08,07,14,33,29.20
2018,08,07,14,34,29.10
2018,08,07,14,35,29.00
2018,08,07,14,36,29.00
2018,08,07,14,37,29.00
2018,08,07,14,38,29.00
2018,08,07,14,39,29.10
2018,08,07,14,40,29.10
2018,08,07,14,41,29.20
2018,08,07,14,42,29.20
2018,08,07,14,43,29.20
2018,08,07,14,44,29.30
2018,08,07,14,45,29.30
2018,08,07,14,46,29.30
2018,08,07,14,47,29.40
2018,08,07,14,48,29.40
2018,08,07,14,49,29.40
2018,08,07,14,50,29.40
2018,08,07,14,51,29.50
2018,08,07,14,52,29.50
2018,08,07,14,53,29.50
2018,08,07,14,54,29.40
2018,08,07,14,55,29.50
2018,08,07,14,56,29.60
2018,08,07,14,57,29.60
2018,08,07,14,58,29.60
2018,08,07,14,59,29.60
2018,08,07,15,00,29.60
2018,08,07,15,01,29.60
2018,08,07,15,02,29.60
2018,08,07,15,03,29.60
2018,08,07,15,04,29.60
2018,08,07,15,05,29.70
2018,08,07,15,06,29.70
2018,08,07,15,07,29.80
2018,08,07,15,08,29.80
2018,08,07,15,09,29.80
2018,08,07,15,10,29.80
2018,08,07,15,11,29.80
2018,08,07,15,12,29.80
2018,08,07,15,13,29.80
2018,08,07,15,14,29.80
2018,08,07,15,15,29.90
2018,08,07,15,16,29.90
2018,08,07,15,17,30.00
2018,08,07,15,18,30.10
2018,08,07,15,19,30.20
2018,08,07,15,20,30.20
2018,08,07,15,21,30.30
2018,08,07,15,22,30.20
2018,08,07,15,23,30.20
2018,08,07,15,24,30.10
2018,08,07,15,25,30.10
2018,08,07,15,26,30.10
2018,08,07,15,27,30.00
2018,08,07,15,28,30.00
2018,08,07,15,29,29.90
2018,08,07,15,30,30.00
2018,08,07,15,31,30.00
2018,08,07,15,32,30.10
2018,08,07,15,33,30.00
2018,08,07,15,34,30.00
2018,08,07,15,35,30.00
2018,08,07,15,36,29.90
2018,08,07,15,37,30.00
2018,08,07,15,38,30.10
2018,08,07,15,39,30.10
2018,08,07,15,40,30.20
2018,08,07,15,41,30.30
2018,08,07,15,42,30.30
2018,08,07,15,43,30.40
2018,08,07,15,44,30.40
2018,08,07,15,45,30.50
2018,08,07,15,46,30.50
2018,08,07,15,47,30.60
2018,08,07,15,48,30.60
2018,08,07,15,49,30.60
2018,08,07,15,50,30.50
2018,08,07,15,51,30.50
2018,08,07,15,52,30.50
2018,08,07,15,53,30.50
2018,08,07,15,54,30.60
2018,08,07,15,55,30.60
2018,08,07,15,56,30.60
2018,08,07,15,57,30.60
2018,08,07,15,58,30.60
2018,08,07,15,59,30.70
2018,08,07,16,00,30.80
2018,08,07,16,01,30.90
2018,08,07,16,02,30.90
2018,08,07,16,03,30.90
2018,08,07,16,04,30.90
2018,08,07,16,05,31.00
2018,08,07,16,06,31.00
2018,08,07,16,07,30.90
2018,08,07,16,08,30.90
2018,08,07,16,09,30.90
2018,08,07,16,10,30.90
2018,08,07,16,11,30.90
2018,08,07,16,12,30.90
2018,08,07,16,13,30.90
2018,08,07,16,14,31.00
2018,08,07,16,15,31.10
2018,08,07,16,16,31.00
2018,08,07,16,17,30.90
2018,08,07,16,18,30.90
2018,08,07,16,19,30.90
2018,08,07,16,20,30.90
2018,08,07,16,21,30.80
2018,08,07,16,22,30.80
2018,08,07,16,23,30.70
2018,08,07,16,24,30.60
2018,08,07,16,25,30.60
2018,08,07,16,26,30.60
2018,08,07,16,27,30.60
2018,08,07,16,28,30.50
2018,08,07,16,29,30.50
2018,08,07,16,30,30.50
2018,08,07,16,31,30.60
2018,08,07,16,32,30.60
2018,08,07,16,33,30.50
2018,08,07,16,34,30.60
2018,08,07,16,35,30.60
2018,08,07,16,36,30.60
2018,08,07,16,37,30.60
2018,08,07,16,38,30.60
2018,08,07,16,39,30.60
2018,08,07,16,40,30.60
2018,08,07,16,41,30.70
2018,08,07,16,42,30.70
2018,08,07,16,43,30.70
2018,08,07,16,44,30.70
2018,08,07,16,45,30.70
2018,08,07,16,46,30.80
2018,08,07,16,47,30.80
2018,08,07,16,48,30.80
2018,08,07,16,49,30.80
2018,08,07,16,50,30.80
2018,08,07,16,51,30.80
2018,08,07,16,52,30.80
2018,08,07,16,53,30.80
2018,08,07,16,54,30.80
2018,08,07,16,55,30.80
2018,08,07,16,56,30.80
2018,08,07,16,57,30.80
2018,08,07,16,58,30.70
2018,08,07,16,59,30.70
2018,08,07,17,00,30.60
2018,08,07,17,01,30.60
2018,08,07,17,02,30.60
2018,08,07,17,03,30.50
2018,08,07,17,04,30.50
2018,08,07,17,05,30.50
2018,08,07,17,06,30.50
2018,08,07,17,07,30.50
2018,08,07,17,08,30.60
2018,08,07,17,09,30.70
2018,08,07,17,10,30.80
2018,08,07,17,11,30.80
2018,08,07,17,12,30.80
2018,08,07,17,13,30.70
2018,08,07,17,14,30.70
2018,08,07,17,15,30.60
2018,08,07,17,16,30.60
2018,08,07,17,17,30.60
2018,08,07,17,18,30.60
2018,08,07,17,19,30.60